Wind_Speed
11 11 12 12 13 13 14 15 16 17 17 18 18 19 19 20 21 22 22 22 22 23 22 21 21 23 23 24 23 22 22 22 22 22 23 23 22 22 22 21 21 21 21 21
9 9 9 10 10 12 13 14 15 16 17 18 18 18 19 20 21 22 22 22 21 21 21 20 20 20 20 20 20 20 19 20 20 20 20 20 20 19 19 19 19 19 19 19
8 8 9 9 10 11 12 12 13 15 15 16 17 18 19 20 21 21 22 21 21 21 19 18 18 17 17 17 17 17 17 18 17 17 18 18 17 17 17 17 17 17 17 17
7 8 8 8 9 11 11 12 13 14 14 16 16 17 18 19 20 21 21 20 19 18 17 16 16 15 15 15 15 15 15 15 15 16 16 16 15 15 15 15 15 15 15 15
7 8 8 8 8 9 10 11 12 13 14 15 16 17 17 18 19 19 18 18 17 16 14 14 14 14 14 14 13 13 14 14 14 14 14 14 14 13 14 14 13 13 13 13
7 8 8 8 9 9 11 12 13 14 15 15 15 16 17 17 17 16 17 16 15 14 13 13 12 11 11 12 11 11 11 11 12 12 12 12 13 13 13 12 12 11 11 11
7 7 8 8 9 9 11 12 13 14 14 15 15 15 15 15 15 16 15 15 13 12 11 10 10 10 10 9 9 9 9 10 10 10 10 11 11 11 11 10 9 9 8 8
7 8 8 8 8 9 10 12 13 13 14 14 14 14 14 14 14 14 14 13 11 10 9 9 9 9 8 8 8 8 8 8 8 9 10 10 10 9 8 7 7 7 7 7
7 7 8 8 9 9 11 12 12 12 13 13 14 14 13 13 13 12 12 10 8 8 8 7 7 7 7 7 7 7 7 7 8 8 9 9 8 8 8 7 7 6 7 7
7 7 8 8 9 10 11 11 12 12 12 12 13 12 12 11 11 10 9 9 7 7 6 6 6 6 6 6 7 7 7 6 6 7 8 8 8 7 8 8 8 8 8 8
7 8 8 9 9 10 10 10 10 11 10 10 10 10 10 9 8 8 8 7 6 5 5 5 6 6 5 7 7 7 7 7 7 7 8 9 9 9 9 9 9 9 9 9
6 7 7 8 8 9 9 9 9 9 10 9 10 9 8 7 6 6 6 6 6 5 6 6 6 6 6 7 7 8 8 8 8 8 9 10 10 10 10 10 10 10 11 11
6 6 6 7 7 8 8 8 8 9 9 9 9 8 7 7 6 5 6 6 6 6 7 7 7 7 7 8 8 8 8 8 9 9 10 10 10 10 11 11 11 11 11 11
5 6 6 7 7 7 7 7 7 7 8 8 8 8 7 6 5 5 5 6 6 6 7 7 7 7 8 8 8 8 8 8 9 9 9 10 10 10 10 11 11 12 12 12
6 6 6 6 6 6 6 6 6 6 6 6 7 7 7 6 6 6 5 5 6 6 7 7 7 7 8 8 8 7 8 8 8 8 9 10 10 11 11 11 11 12 12 11
5 5 6 5 6 6 6 6 5 5 5 5 5 6 6 6 6 6 5 5 5 6 6 6 6 7 7 7 7 7 8 8 8 9 9 10 10 10 10 11 11 11 11 11
5 5 5 5 6 6 6 5 5 5 5 4 4 4 5 5 5 6 5 4 4 5 5 5 6 6 7 7 7 8 8 8 9 9 10 10 10 11 11 10 10 10 10 10
5 5 6 6 6 5 5 4 4 4 4 4 3 3 4 5 5 5 5 4 4 3 4 4 5 6 6 6 7 7 8 8 8 8 9 9 10 10 10 10 10 10 9 9
6 6 6 6 5 4 4 3 3 3 4 3 2 3 3 4 5 4 4 4 4 4 4 4 5 5 6 6 6 6 7 7 7 7 7 7 8 8 8 8 8 8 8 8
5 5 6 5 5 4 3 3 3 3 3 3 2 2 2 3 4 4 4 4 4 3 3 3 3 4 4 4 5 5 5 5 5 5 5 5 6 6 6 6 6 6 6 6
5 5 5 5 4 4 4 3 3 3 4 3 2 2 3 3 3 3 3 3 3 3 3 2 2 2 2 3 3 3 3 3 3 3 3 3 3 3 3 4 4 3 4 4
5 5 5 4 4 4 4 4 4 4 4 3 3 3 3 4 3 3 3 3 3 3 3 3 2 2 2 2 2 1 1 1 1 1 1 1 1 1 1 2 2 2 2 2
6 5 4 4 4 4 4 4 5 5 5 4 4 4 4 5 5 5 4 4 4 4 4 4 3 3 3 3 3 3 3 3 3 3 3 3 3 3 3 3 3 3 3 3
6 5 5 5 5 5 5 5 5 5 5 5 5 5 5 5 5 5 5 5 5 5 5 5 4 4 4 4 4 5 5 5 5 5 5 5 5 5 5 5 5 6 6 6
7 7 7 6 6 6 6 6 6 6 6 6 6 6 6 6 6 6 6 6 6 6 6 6 7 7 6 6 6 6 6 6 7 7 7 7 7 7 8 8 8 8 9 9
8 8 8 7 7 7 7 7 7 7 7 7 7 7 7 7 7 7 7 7 7 7 8 8 8 8 8 9 9 9 9 9 9 9 10 10 10 10 11 11 11 11 12 12
10 9 9 9 9 9 9 8 8 8 8 8 8 8 8 8 8 8 8 8 8 8 9 9 9 10 10 10 11 11 11 11 12 12 12 12 12 13 13 14 14 15 15 15
Wind_Direction
238 243 248 253 258 263 265 269 270 275 280 284 286 288 292 295 298 300 301 301 301 302 299 297 297 296 297 297 295 293 292 292 292 293 295 295 295 295 297 297 296 295 293 293
243 247 251 255 262 269 271 273 276 278 282 286 288 290 293 297 301 302 303 302 302 304 301 298 297 298 298 298 297 295 295 295 295 296 298 299 298 298 299 299 300 299 298 298
247 247 247 253 264 272 276 277 279 281 284 284 287 291 293 297 302 304 304 304 303 303 301 302 300 299 300 300 299 298 296 295 298 301 303 305 303 303 304 304 304 305 304 305
250 250 254 268 270 276 280 282 284 285 288 291 293 295 296 297 300 305 307 307 305 304 304 302 304 304 304 301 301 301 300 300 302 305 308 309 307 308 310 311 312 311 310 310
258 263 269 276 283 284 288 291 292 294 295 296 297 297 299 301 302 306 305 305 304 305 304 302 303 304 305 306 304 303 304 304 305 307 310 310 309 312 317 319 319 319 319 319
259 266 276 283 288 290 292 294 297 300 301 299 299 301 303 305 305 306 307 308 307 305 303 305 307 308 309 309 309 309 310 311 312 313 315 314 315 319 321 322 323 322 323 329
261 267 280 288 292 298 298 301 302 303 305 305 306 307 306 306 308 309 312 312 311 310 306 307 314 315 312 311 316 319 316 314 318 322 324 326 330 329 327 328 329 332 340 349
271 276 284 293 298 301 302 303 306 306 307 308 310 310 310 310 312 315 317 317 316 314 311 311 316 321 319 319 319 323 325 328 330 334 339 344 348 350 350 350 352 1 9 14
280 285 290 296 299 301 307 311 312 312 310 311 312 312 312 315 317 320 326 327 324 327 324 322 325 329 331 332 335 341 344 343 342 348 354 359 4 8 12 17 22 29 34 36
284 288 293 297 301 306 313 318 321 320 317 316 318 318 318 320 325 329 334 337 332 335 340 343 343 345 348 354 360 2 1 2 8 12 15 19 25 29 31 36 41 49 54 54
292 294 294 298 304 309 317 324 328 328 326 326 330 331 331 335 337 342 352 356 356 358 2 4 9 9 13 17 19 21 23 28 33 34 36 39 43 47 48 49 56 62 66 69
303 306 304 306 306 311 319 325 331 337 341 341 344 346 349 357 360 4 11 18 33 43 35 29 27 30 33 34 36 37 42 47 47 48 49 51 55 55 55 59 65 69 71 75
311 312 314 314 315 317 321 325 332 340 350 357 357 359 5 9 11 20 33 36 43 48 44 38 36 39 44 45 44 48 52 53 54 56 58 58 60 61 63 65 68 73 74 74
313 318 320 318 314 314 315 323 334 343 352 358 3 7 16 20 19 26 31 36 42 47 43 40 44 47 47 46 49 53 55 56 58 60 62 63 63 66 68 71 74 76 77 76
316 318 320 320 320 318 319 326 334 343 351 359 7 14 20 25 27 29 32 38 42 42 44 50 53 52 48 48 50 53 55 57 61 63 64 66 70 72 74 76 78 79 79 78
316 318 320 322 327 328 325 328 333 343 353 3 10 13 16 21 31 34 33 38 43 47 52 51 48 46 45 46 51 54 55 59 63 67 69 72 75 75 76 78 79 80 79 79
315 317 321 328 329 327 327 330 336 345 357 8 14 19 18 22 27 29 31 38 45 48 49 44 45 45 43 44 48 53 59 64 68 72 76 77 77 78 78 79 80 81 81 80
313 315 319 322 324 324 330 336 343 349 356 3 13 20 21 25 26 30 35 40 45 47 44 41 40 43 44 43 49 58 65 68 71 75 78 79 80 81 80 80 81 82 80 78
321 322 324 327 328 327 328 337 340 344 351 356 9 23 26 28 27 30 34 35 41 48 49 47 42 43 46 51 59 65 68 69 72 74 76 78 80 81 82 82 81 80 77 74
317 322 327 329 327 325 322 322 333 343 348 349 344 358 11 18 23 25 23 22 28 35 39 42 39 37 45 55 61 64 66 65 65 68 70 73 76 78 78 78 76 76 73 68
311 313 317 320 320 323 322 319 322 329 330 326 321 318 332 349 1 7 9 12 18 22 23 27 29 30 32 40 48 55 55 48 48 55 63 69 71 70 68 68 65 61 59 58
304 308 308 305 308 315 320 318 316 321 324 318 310 307 308 314 325 332 335 334 342 351 353 351 348 346 345 346 348 356 360 4 11 24 31 26 22 24 31 23 13 10 16 17
294 296 298 301 303 308 314 314 313 316 315 310 304 304 307 306 306 308 311 312 313 322 327 324 320 320 319 314 307 304 302 297 293 291 292 292 297 299 298 300 301 303 304 307
288 288 293 298 301 304 306 311 312 314 314 310 305 301 301 302 300 298 295 296 300 306 308 307 305 306 304 301 297 295 294 292 289 288 289 288 286 285 286 285 287 289 292 294
282 284 287 291 295 299 303 307 309 309 307 304 302 300 299 299 296 292 287 284 287 292 297 296 293 292 293 292 290 289 291 291 289 287 286 286 285 286 286 286 286 287 288 290
276 281 283 285 286 288 292 297 300 301 300 299 297 294 293 294 293 291 288 285 285 288 290 291 291 288 286 287 286 284 283 284 282 281 280 282 283 284 284 284 285 287 289 291
272 277 279 280 282 283 284 286 289 293 293 293 292 292 293 292 291 288 286 285 287 289 290 292 292 290 288 289 288 286 284 283 282 280 280 281 283 284 284 285 285 286 287 289
Height
5795 5797 5798 5799 5800 5801 5801 5801 5801 5801 5801 5801 5799 5798 5797 5795 5793 5790 5788 5785 5782 5779 5776 5773 5770 5767 5764 5761 5758 5755 5753 5751 5749 5746 5744 5742 5740 5738 5736 5735 5733 5731 5730 5728
5793 5795 5796 5797 5798 5798 5798 5798 5798 5797 5797 5796 5795 5793 5792 5790 5787 5785 5782 5779 5776 5773 5770 5767 5764 5761 5758 5756 5753 5750 5748 5746 5744 5742 5739 5737 5735 5734 5732 5730 5729 5727 5725 5723
5792 5793 5794 5795 5796 5796 5796 5795 5795 5794 5794 5792 5791 5789 5787 5785 5782 5779 5776 5773 5770 5767 5764 5762 5759 5756 5754 5751 5748 5746 5744 5742 5740 5738 5736 5733 5732 5730 5728 5726 5724 5722 5721 5719
5791 5792 5793 5796 5794 5794 5793 5792 5792 5790 5789 5788 5786 5784 5782 5780 5777 5774 5771 5768 5765 5762 5760 5757 5755 5752 5749 5747 5745 5742 5740 5738 5736 5734 5732 5730 5728 5727 5725 5723 5721 5719 5717 5715
5789 5790 5791 5792 5792 5791 5790 5790 5788 5787 5786 5784 5782 5780 5778 5775 5772 5769 5766 5763 5761 5758 5756 5753 5751 5748 5746 5744 5741 5739 5737 5735 5734 5732 5730 5728 5726 5724 5722 5720 5719 5717 5715 5713
5788 5788 5789 5791 5789 5788 5789 5787 5785 5783 5782 5780 5778 5776 5774 5771 5768 5765 5762 5759 5756 5754 5752 5750 5747 5745 5743 5741 5738 5736 5735 5733 5731 5729 5727 5725 5723 5722 5720 5718 5717 5715 5713 5712
5786 5786 5787 5787 5787 5786 5787 5785 5782 5780 5778 5776 5774 5772 5770 5766 5764 5761 5758 5755 5753 5750 5748 5746 5744 5742 5740 5738 5736 5735 5733 5731 5729 5727 5726 5724 5722 5720 5718 5717 5715 5714 5712 5711
5784 5784 5787 5785 5784 5784 5783 5781 5779 5776 5774 5772 5770 5768 5765 5763 5760 5757 5755 5752 5750 5748 5746 5744 5742 5741 5738 5737 5735 5733 5731 5729 5728 5726 5725 5723 5721 5719 5718 5716 5715 5713 5712 5711
5783 5784 5783 5782 5781 5781 5779 5777 5775 5773 5771 5769 5767 5764 5762 5759 5756 5754 5752 5749 5747 5746 5744 5743 5741 5740 5738 5736 5734 5732 5731 5729 5728 5726 5725 5723 5721 5719 5718 5717 5715 5714 5713 5712
5781 5780 5780 5779 5778 5778 5776 5774 5772 5770 5768 5766 5763 5761 5758 5756 5754 5752 5750 5748 5746 5745 5743 5742 5741 5739 5737 5736 5734 5732 5731 5730 5728 5727 5725 5723 5722 5721 5719 5718 5717 5716 5715 5714
5779 5778 5778 5777 5776 5775 5773 5772 5770 5768 5766 5763 5761 5758 5756 5754 5752 5750 5749 5747 5745 5744 5743 5742 5741 5739 5737 5736 5734 5733 5732 5730 5729 5728 5726 5725 5724 5722 5721 5720 5719 5718 5717 5716
5778 5777 5776 5775 5774 5773 5771 5770 5768 5766 5764 5761 5759 5757 5755 5753 5751 5750 5748 5747 5746 5745 5744 5743 5741 5740 5738 5737 5736 5735 5733 5732 5731 5730 5728 5727 5726 5725 5724 5723 5722 5721 5720 5720
5776 5775 5774 5773 5772 5771 5769 5768 5766 5765 5763 5761 5758 5756 5754 5753 5751 5750 5749 5748 5747 5746 5745 5744 5742 5741 5740 5739 5738 5736 5735 5734 5733 5732 5731 5730 5729 5728 5727 5726 5725 5724 5723 5723
5775 5774 5772 5771 5770 5769 5768 5766 5765 5764 5762 5760 5758 5756 5754 5753 5752 5751 5750 5749 5748 5747 5746 5745 5744 5743 5742 5740 5739 5738 5737 5736 5735 5734 5734 5733 5732 5731 5730 5729 5728 5728 5727 5727
5774 5773 5772 5770 5769 5768 5766 5765 5764 5763 5761 5760 5758 5756 5755 5754 5753 5752 5751 5750 5749 5748 5747 5747 5746 5745 5744 5742 5741 5740 5739 5738 5738 5737 5736 5735 5734 5733 5733 5732 5732 5731 5731 5730
5773 5772 5770 5769 5768 5767 5765 5764 5763 5762 5761 5759 5758 5757 5756 5755 5753 5752 5751 5751 5750 5750 5749 5748 5747 5746 5745 5744 5743 5742 5741 5741 5740 5739 5738 5738 5737 5736 5736 5736 5735 5735 5734 5734
5772 5771 5769 5768 5767 5766 5764 5763 5762 5761 5760 5759 5758 5757 5756 5755 5754 5753 5752 5752 5752 5751 5750 5750 5749 5748 5747 5746 5745 5744 5743 5743 5742 5741 5741 5740 5740 5739 5739 5739 5739 5738 5738 5737
5771 5769 5768 5767 5766 5765 5763 5762 5762 5761 5760 5759 5759 5758 5757 5756 5755 5754 5754 5753 5753 5752 5751 5751 5750 5750 5749 5748 5747 5746 5746 5745 5745 5744 5744 5743 5743 5743 5742 5742 5742 5741 5741 5741
5769 5768 5767 5766 5765 5764 5763 5762 5761 5761 5760 5759 5759 5758 5758 5757 5756 5756 5755 5754 5754 5753 5753 5752 5751 5751 5750 5750 5749 5748 5748 5748 5747 5747 5746 5746 5746 5745 5745 5745 5744 5744 5744 5744
5768 5767 5766 5765 5764 5763 5762 5762 5761 5761 5760 5760 5759 5759 5758 5758 5757 5756 5756 5755 5755 5754 5754 5753 5752 5752 5752 5751 5750 5750 5750 5750 5749 5749 5748 5748 5748 5747 5747 5747 5747 5746 5746 5746
5767 5766 5765 5764 5763 5763 5762 5762 5761 5761 5760 5759 5759 5759 5759 5758 5758 5757 5757 5756 5756 5755 5754 5754 5753 5753 5753 5752 5751 5751 5751 5751 5750 5750 5750 5749 5749 5749 5748 5748 5748 5748 5747 5747
5766 5765 5764 5764 5763 5762 5762 5762 5761 5760 5760 5759 5759 5759 5758 5758 5758 5757 5757 5756 5756 5755 5755 5754 5754 5753 5753 5752 5752 5752 5751 5751 5751 5750 5750 5750 5750 5750 5749 5749 5749 5748 5748 5748
5764 5764 5763 5763 5762 5762 5762 5761 5761 5760 5759 5759 5758 5758 5758 5758 5757 5757 5757 5756 5755 5755 5754 5754 5754 5753 5753 5752 5752 5752 5751 5751 5751 5750 5750 5750 5750 5749 5749 5749 5749 5748 5748 5747
5763 5763 5762 5762 5762 5761 5761 5761 5760 5759 5759 5758 5758 5757 5757 5757 5756 5756 5755 5755 5755 5754 5754 5754 5753 5752 5752 5752 5751 5751 5750 5750 5750 5749 5749 5749 5749 5748 5748 5748 5748 5747 5747 5746
5762 5762 5761 5761 5761 5760 5760 5759 5759 5758 5758 5757 5757 5756 5756 5755 5755 5755 5754 5754 5754 5753 5753 5753 5752 5751 5751 5750 5750 5750 5749 5749 5748 5748 5748 5747 5747 5747 5746 5746 5746 5745 5745 5744
5760 5760 5760 5760 5759 5759 5759 5758 5758 5757 5757 5756 5756 5755 5754 5754 5753 5753 5753 5752 5752 5752 5751 5751 5750 5750 5749 5748 5748 5748 5747 5747 5746 5746 5746 5745 5745 5744 5744 5743 5743 5742 5742 5741
5758 5758 5758 5758 5757 5757 5757 5757 5756 5756 5755 5755 5754 5754 5753 5752 5752 5751 5751 5751 5750 5750 5749 5749 5748 5747 5747 5746 5745 5745 5744 5744 5743 5743 5742 5742 5742 5741 5741 5740 5739 5739 5738 5737